Temperature
19 19 19 19 19 19 19 19 19 19 19 19 19 19 19 19 19 19 19 19 19 19 19 19 19 19 19 19 19 19 19 19 19 19 19 19 18 18 18 18 18 18 18
19 19 19 19 19 19 19 19 19 19 19 19 19 19 19 19 19 19 19 19 19 19 19 19 19 19 19 19 19 19 19 19 19 19 19 18 18 18 18 17 18 18 18
19 19 19 19 19 19 19 19 19 19 19 19 19 19 19 19 19 19 19 19 19 19 19 19 19 19 19 19 19 19 19 19 18 18 18 18 18 18 18 18 18 18 18
19 19 19 19 19 19 19 19 19 19 19 19 19 19 19 19 19 19 19 19 19 19 19 19 19 19 19 19 19 19 19 18 18 18 18 18 18 18 18 18 18 18 18
19 19 19 19 19 19 19 19 19 19 19 19 19 19 19 19 19 19 19 19 19 19 19 18 18 18 18 19 19 18 18 18 18 18 18 18 18 18 18 18 18 18 18
19 19 19 19 19 19 19 19 19 19 19 19 19 19 19 19 19 19 19 19 19 19 18 18 18 18 18 19 18 18 18 18 18 18 18 18 18 18 18 18 18 18 18
19 19 19 19 19 19 19 19 19 19 19 19 19 19 19 19 19 18 18 19 19 18 18 18 18 18 18 19 19 19 18 18 18 18 18 18 18 18 18 18 18 18 18
19 19 20 19 19 19 19 19 19 19 19 19 19 19 19 19 19 19 19 19 19 18 18 18 18 18 19 19 19 19 19 18 18 18 18 18 18 18 18 18 18 18 18
20 19 19 19 19 19 19 19 19 19 19 19 19 19 19 19 19 19 19 19 19 18 18 18 18 18 19 19 19 19 19 19 18 18 18 18 18 18 18 18 18 18 18
20 19 19 19 19 19 19 19 19 19 19 19 19 19 19 19 19 19 19 19 19 19 19 19 19 19 19 19 19 19 19 19 18 18 18 18 18 18 18 18 18 18 18
20 20 19 19 19 19 19 19 19 19 19 19 19 19 18 18 18 18 18 19 19 19 19 19 19 19 19 19 19 19 19 19 19 19 19 19 19 18 18 18 18 18 18
20 20 20 20 19 19 19 19 19 19 19 18 18 18 18 18 18 18 18 19 19 19 19 18 18 19 18 18 18 19 19 19 19 19 19 19 19 19 18 18 18 18 18
20 20 20 20 20 19 19 19 19 19 19 18 18 18 18 18 18 18 19 19 19 18 18 18 18 18 18 18 18 19 19 19 19 19 19 19 19 19 19 18 18 18 18
21 21 20 20 20 20 19 19 19 19 19 19 19 19 19 19 19 19 19 19 19 18 18 18 18 18 18 19 19 19 19 19 19 19 19 19 19 19 19 18 18 18 18
21 21 20 20 20 20 19 19 19 19 19 19 19 19 19 19 19 19 19 19 19 19 19 19 19 18 19 19 19 19 19 19 19 19 19 19 19 19 19 18 18 18 18
21 21 20 20 20 20 19 19 19 20 19 19 19 19 19 19 19 19 19 19 19 19 19 19 19 19 19 19 19 19 19 19 19 19 19 19 19 19 19 18 18 18 18
21 20 20 20 20 20 19 19 19 19 19 19 19 19 19 19 19 19 19 19 19 19 19 19 19 19 19 19 19 19 19 19 19 19 19 19 19 19 19 19 18 18 18
21 20 20 20 20 20 19 19 20 20 19 19 19 19 19 19 19 19 19 19 19 19 19 19 19 19 19 19 19 19 19 19 19 19 19 19 19 19 19 19 19 18 18
21 20 20 20 20 20 19 19 19 20 19 19 19 19 19 19 19 19 19 19 19 19 19 19 19 19 19 19 19 19 19 19 19 19 19 19 19 19 19 19 19 18 18
21 20 20 20 20 19 19 19 19 19 19 19 19 19 19 19 19 19 19 19 19 19 19 19 19 19 19 19 19 19 19 19 19 19 19 19 19 19 19 19 19 18 18
20 20 20 20 20 20 19 19 19 19 19 19 19 19 19 19 19 19 19 19 19 19 19 19 19 19 19 19 19 19 20 20 20 20 19 19 19 19 19 19 19 18 18
21 20 20 20 20 20 19 19 19 19 20 19 20 20 19 19 19 19 19 19 19 19 19 19 19 19 19 19 19 19 19 20 20 20 20 20 19 19 19 19 19 19 18
21 20 20 20 20 20 19 19 19 19 19 20 20 19 19 19 19 19 19 19 19 19 19 19 19 19 19 19 19 19 19 19 20 20 20 20 20 19 19 19 19 19 18
21 21 20 20 20 20 19 19 19 19 19 20 20 20 19 19 19 19 19 19 19 19 19 19 19 19 19 19 19 19 19 19 19 19 20 20 20 19 19 19 19 19 19
22 21 21 20 20 20 20 20 19 19 19 19 19 19 19 19 19 19 19 19 19 19 19 19 19 19 19 19 19 19 19 19 19 19 19 20 20 20 20 19 19 19 19
23 22 21 21 20 20 20 20 19 19 19 19 19 19 19 19 19 19 19 19 19 19 19 19 19 19 19 19 19 19 19 19 19 19 19 19 19 20 20 19 19 19 19
Wind_Speed
12 14 17 17 18 18 18 18 18 18 18 18 18 18 19 19 18 17 17 16 16 15 15 14 14 13 13 13 13 13 13 13 13 14 14 14 13 12 11 12 13 13 14
15 16 17 17 17 17 17 18 18 18 18 17 17 17 17 17 17 16 16 16 15 15 15 14 13 13 12 12 12 11 11 11 11 12 13 13 12 11 11 11 13 13 13
16 17 17 17 17 17 17 17 16 17 17 16 16 16 16 16 15 15 15 15 14 14 14 13 12 12 11 10 10 9 8 8 8 9 10 11 11 11 12 13 14 13 13
16 16 16 17 16 16 16 16 15 16 16 15 15 15 15 14 14 14 14 14 14 13 12 12 11 11 10 9 8 6 6 5 5 5 5 9 11 12 12 12 12 12 12
15 16 17 16 16 16 15 15 14 14 14 14 14 14 13 13 13 13 13 13 12 12 11 11 11 10 9 8 6 4 3 2 2 3 4 11 13 12 11 11 11 11 10
15 17 17 16 16 15 15 14 14 13 13 13 13 13 12 12 12 12 12 12 11 11 10 10 10 9 8 6 4 2 0 2 4 2 8 13 13 12 11 10 10 10 9
15 16 17 16 16 15 14 14 13 13 12 12 12 12 12 11 11 11 11 10 10 10 9 9 8 7 6 5 3 1 3 6 6 1 9 14 14 13 11 10 9 9 8
15 16 17 16 16 15 14 13 13 12 11 11 11 11 11 10 10 10 10 9 9 8 8 7 7 6 5 3 0 2 4 7 3 4 10 14 15 13 11 10 9 8 8
14 15 15 15 14 14 13 12 12 12 11 11 11 10 10 9 9 9 9 8 7 6 6 6 5 4 3 2 2 3 5 6 4 2 9 13 14 13 11 10 9 8 8
12 12 13 14 14 13 13 12 12 12 11 11 10 10 9 9 9 9 9 7 6 5 5 4 4 3 3 3 4 4 6 7 4 4 10 13 14 13 11 10 9 8 7
10 9 10 11 12 13 14 14 12 12 12 11 11 11 10 8 9 9 8 8 6 6 5 5 4 4 5 6 7 6 7 6 1 6 10 14 14 12 11 10 9 8 7
10 9 8 8 9 9 10 12 11 11 11 10 9 10 9 6 7 8 10 9 7 7 6 6 7 7 7 6 8 8 6 5 3 6 10 15 13 12 10 9 9 8 8
11 9 9 8 8 7 6 8 7 7 9 8 7 7 6 5 5 7 7 7 7 8 7 7 8 7 6 6 5 7 6 3 3 7 12 15 13 11 10 10 9 8 8
11 10 9 9 7 5 5 5 6 5 6 6 7 5 4 2 2 3 3 5 6 6 5 4 4 5 4 2 2 2 2 2 3 8 12 14 13 12 11 10 10 9 9
11 9 10 9 7 5 3 1 4 4 5 6 6 4 3 3 2 2 1 1 2 3 3 2 2 2 2 2 3 3 2 1 2 6 9 13 13 13 12 11 10 10 10
10 9 10 10 8 6 3 1 2 4 5 5 5 5 2 3 2 2 1 1 1 2 2 2 2 2 2 2 2 2 2 2 3 4 8 12 14 14 13 12 12 11 12
10 9 9 9 9 7 5 4 3 3 5 4 5 6 3 4 3 1 1 2 1 2 1 2 2 2 3 2 2 2 2 3 3 4 7 9 11 14 15 14 13 13 13
11 9 8 9 10 8 5 3 3 3 3 3 5 6 5 4 3 2 2 2 3 3 2 2 2 2 2 2 2 2 2 2 3 5 6 8 9 9 13 15 15 15 14
11 10 8 6 9 8 6 3 2 3 3 3 4 5 6 6 5 4 2 2 4 3 2 2 1 1 2 2 3 3 3 3 3 5 4 6 8 9 10 14 17 16 15
11 10 9 7 7 8 6 3 1 2 3 3 4 5 6 5 5 4 3 4 4 2 1 1 0 1 2 3 4 2 2 3 4 3 4 4 6 7 9 10 13 14 16
12 11 10 9 8 6 5 5 4 4 4 4 4 6 5 5 5 4 2 2 2 2 2 1 1 2 3 2 2 2 3 4 4 3 3 3 4 5 7 9 9 9 11
12 11 10 9 9 8 6 5 4 4 4 4 3 5 6 5 4 4 3 3 3 2 2 2 2 2 3 2 2 1 2 2 2 4 3 4 3 3 4 7 8 8 9
13 12 11 10 9 9 7 5 4 4 3 3 4 4 4 4 4 4 2 2 2 2 2 3 3 3 3 3 2 1 1 1 2 2 3 3 3 2 3 4 6 8 9
14 13 11 10 9 9 8 6 7 6 5 5 4 4 5 5 4 5 4 3 2 3 2 4 2 2 3 3 2 2 2 1 2 2 2 2 3 4 3 3 3 5 7
14 13 12 10 9 9 8 7 6 6 5 4 4 4 5 5 5 5 4 3 2 3 2 2 1 3 2 3 3 2 3 3 4 3 3 2 3 3 4 3 3 4 6
12 12 12 10 9 9 9 8 8 7 6 5 4 5 5 4 5 5 5 4 3 3 3 3 2 4 3 3 4 4 3 2 3 3 3 3 3 3 3 3 3 3 5
Wind_Direction
113 115 114 111 110 109 107 106 105 104 102 99 97 94 93 93 92 93 95 96 96 96 96 97 94 91 89 88 89 91 94 95 96 97 98 97 96 97 99 103 103 99 103
116 118 116 113 113 111 110 108 107 105 103 101 99 97 96 95 95 95 96 96 97 97 97 96 97 96 94 94 96 99 102 106 109 113 111 105 101 97 93 94 99 104 107
115 118 117 115 115 113 112 111 110 108 106 104 102 100 99 98 98 97 97 98 97 98 98 98 98 99 100 100 101 106 112 118 127 134 133 119 110 102 99 99 103 109 109
118 119 117 117 116 115 114 114 113 111 110 107 106 105 103 102 101 100 99 99 99 99 99 98 99 101 102 102 104 114 127 136 152 166 159 126 115 109 109 109 110 112 112
115 115 118 121 118 118 117 117 116 114 113 112 111 109 107 105 103 102 102 102 101 101 100 98 99 99 99 102 108 117 136 170 222 245 124 107 107 117 117 117 117 118 117
118 118 123 124 122 122 122 122 119 117 116 116 114 112 109 107 106 105 104 102 101 101 100 100 101 101 100 101 102 105 304 293 296 240 126 115 115 121 121 123 124 123 122
121 121 127 128 127 126 125 126 124 122 121 120 119 115 111 110 109 108 107 104 102 104 104 103 103 106 104 99 91 13 318 310 290 175 115 113 121 127 127 125 128 131 130
120 122 127 131 130 130 129 130 130 130 129 125 123 121 120 120 119 116 111 109 106 106 109 110 110 111 110 107 86 306 308 303 315 84 106 116 128 131 131 131 132 134 135
122 128 134 136 134 134 134 134 137 138 137 133 131 132 133 133 132 128 120 118 114 114 117 118 121 124 131 164 237 274 292 301 306 129 112 118 132 134 134 135 137 138 140
124 131 137 142 144 146 144 148 148 147 147 147 146 149 151 150 150 146 139 133 131 129 132 140 147 159 184 216 236 259 282 298 259 119 112 127 137 138 141 144 147 150 152
123 130 140 142 150 151 151 153 157 156 158 161 166 170 173 176 169 164 142 146 152 158 167 181 192 204 217 224 229 249 272 277 171 111 119 137 146 146 150 155 161 164 168
134 134 136 142 147 152 149 148 161 164 163 177 172 176 189 178 162 149 147 158 171 181 195 214 228 235 234 228 219 227 246 246 171 125 134 147 153 154 158 165 172 177 182
140 140 143 140 139 140 131 148 155 152 154 169 166 176 176 166 154 140 154 168 183 193 206 209 226 236 232 220 209 210 223 230 155 127 144 154 160 166 169 176 182 188 194
142 146 143 132 120 114 122 139 150 154 157 156 163 180 162 156 135 142 161 178 181 194 197 200 208 230 243 249 253 238 253 275 117 129 153 164 169 175 180 186 192 198 203
146 146 135 121 113 109 105 166 153 145 144 151 156 163 171 143 137 134 143 189 190 187 178 206 225 226 245 236 245 220 221 246 172 146 159 174 179 185 191 196 202 207 210
146 142 132 130 129 135 157 192 137 133 143 152 152 149 176 139 116 122 167 283 281 227 186 213 221 206 241 239 241 229 216 214 190 167 162 183 191 194 197 201 206 211 214
149 147 143 149 148 160 169 185 163 161 151 150 145 148 171 142 150 152 213 230 254 253 220 237 242 222 239 242 233 238 226 229 201 190 183 186 193 201 202 205 209 212 216
153 152 162 167 155 165 177 185 172 154 143 166 162 154 168 157 181 217 224 213 232 239 221 224 237 243 253 262 260 260 228 223 213 213 205 193 188 194 202 209 212 214 217
152 155 165 167 154 163 172 187 199 152 173 190 178 165 171 185 197 223 226 217 245 241 229 251 177 272 280 277 261 237 232 221 214 223 210 207 196 191 190 206 213 215 217
154 157 161 167 158 161 167 178 197 181 192 204 184 166 170 195 205 227 221 221 249 260 264 293 327 281 259 259 271 271 247 232 223 212 221 221 212 204 195 196 202 215 218
163 165 165 172 166 169 173 180 186 193 202 211 190 169 179 203 207 225 255 237 255 246 251 261 272 272 265 259 279 284 251 241 225 205 219 221 216 209 200 190 195 202 203
170 170 172 179 175 179 183 188 194 194 204 205 196 161 187 195 208 220 212 233 228 219 226 256 244 269 275 263 255 284 289 277 267 228 214 217 213 208 206 202 191 194 198
178 179 181 184 181 186 187 185 200 190 213 217 184 173 188 200 211 243 212 243 240 216 201 231 235 245 266 277 259 239 272 285 292 258 243 224 213 225 234 212 194 193 197
182 182 182 182 182 183 191 196 199 198 202 215 196 183 184 200 220 223 221 231 243 257 193 234 186 246 257 275 270 236 232 220 258 287 272 248 224 221 223 235 201 188 191
185 183 179 176 180 181 192 200 206 214 209 211 201 187 192 194 212 222 214 220 224 253 224 246 221 249 258 272 286 272 249 235 241 244 271 276 260 231 207 211 201 192 193
185 182 175 171 178 185 194 201 205 216 219 220 214 195 202 205 210 213 210 207 216 237 235 232 239 247 252 274 291 292 278 258 256 246 258 269 268 262 222 198 201 192 197
Height
1517 1518 1520 1521 1523 1525 1527 1528 1530 1532 1534 1535 1536 1538 1539 1540 1542 1543 1544 1545 1546 1547 1548 1549 1550 1551 1552 1553 1553 1554 1555 1556 1557 1558 1559 1560 1561 1562 1562 1563 1564 1565 1566
1518 1520 1522 1524 1525 1527 1529 1531 1533 1535 1537 1538 1539 1541 1542 1543 1545 1546 1547 1548 1548 1549 1550 1551 1552 1553 1554 1554 1555 1556 1557 1558 1559 1560 1561 1562 1563 1563 1564 1565 1565 1566 1568
1520 1522 1524 1526 1528 1530 1532 1534 1536 1538 1539 1541 1542 1544 1545 1546 1547 1548 1549 1550 1551 1552 1552 1553 1554 1555 1555 1556 1557 1558 1559 1560 1561 1561 1562 1563 1564 1565 1566 1567 1567 1568 1569
1523 1525 1526 1528 1531 1533 1535 1537 1538 1540 1542 1543 1545 1546 1547 1549 1550 1550 1551 1552 1553 1554 1554 1555 1556 1556 1557 1558 1559 1560 1561 1562 1563 1563 1564 1566 1566 1567 1567 1568 1569 1569 1570
1525 1526 1528 1530 1533 1535 1537 1539 1541 1542 1544 1545 1547 1548 1549 1551 1552 1552 1553 1554 1555 1555 1556 1557 1557 1558 1559 1560 1561 1562 1563 1564 1565 1565 1566 1567 1567 1568 1569 1569 1570 1571 1572
1526 1528 1529 1532 1534 1537 1539 1541 1543 1544 1546 1547 1549 1550 1551 1552 1554 1554 1555 1556 1557 1557 1558 1559 1559 1560 1560 1561 1562 1563 1564 1565 1566 1567 1568 1568 1569 1569 1569 1570 1571 1572 1573
1528 1529 1531 1533 1536 1538 1540 1543 1544 1546 1547 1549 1550 1552 1553 1554 1555 1556 1557 1558 1558 1559 1560 1560 1561 1562 1562 1563 1564 1565 1566 1566 1567 1569 1569 1569 1570 1570 1570 1571 1572 1573 1573
1530 1531 1533 1535 1538 1540 1542 1544 1546 1548 1549 1551 1552 1553 1555 1556 1557 1558 1559 1559 1560 1561 1561 1562 1562 1563 1564 1564 1565 1566 1567 1567 1569 1569 1570 1570 1570 1571 1571 1572 1572 1573 1574
1532 1533 1535 1537 1539 1541 1543 1545 1547 1549 1551 1552 1553 1555 1556 1558 1558 1559 1560 1561 1562 1562 1563 1563 1564 1564 1565 1566 1566 1567 1568 1568 1569 1570 1571 1571 1571 1571 1572 1572 1573 1574 1575
1534 1536 1537 1539 1541 1542 1544 1546 1548 1550 1552 1553 1555 1557 1558 1559 1560 1561 1561 1562 1563 1563 1564 1565 1565 1566 1566 1567 1568 1568 1569 1569 1571 1571 1571 1571 1572 1572 1572 1573 1574 1574 1575
1535 1537 1539 1541 1542 1544 1545 1547 1549 1551 1553 1555 1557 1558 1559 1560 1561 1562 1563 1563 1564 1565 1565 1566 1566 1567 1567 1568 1569 1569 1569 1570 1571 1571 1571 1572 1572 1572 1573 1573 1574 1575 1576
1536 1539 1540 1542 1544 1545 1547 1548 1550 1552 1554 1556 1558 1560 1561 1562 1563 1564 1564 1564 1565 1566 1566 1567 1567 1568 1568 1569 1569 1570 1570 1570 1570 1571 1571 1572 1572 1573 1573 1573 1574 1575 1575
1537 1539 1541 1543 1545 1546 1548 1549 1552 1554 1556 1557 1559 1561 1562 1564 1564 1565 1565 1565 1566 1566 1567 1567 1568 1568 1569 1569 1570 1570 1570 1571 1571 1571 1571 1571 1572 1572 1573 1573 1573 1574 1575
1538 1540 1542 1544 1545 1547 1549 1551 1553 1555 1557 1558 1559 1561 1563 1564 1565 1566 1566 1566 1567 1567 1568 1568 1569 1569 1569 1570 1570 1570 1570 1571 1571 1570 1571 1571 1572 1572 1572 1572 1573 1573 1574
1538 1541 1543 1544 1545 1547 1549 1552 1554 1556 1557 1558 1560 1562 1563 1565 1565 1566 1567 1567 1568 1568 1569 1568 1569 1569 1569 1570 1570 1570 1570 1570 1569 1570 1570 1571 1571 1571 1572 1572 1572 1572 1573
1539 1541 1543 1544 1546 1548 1550 1552 1554 1556 1558 1559 1561 1562 1563 1565 1565 1566 1567 1567 1568 1568 1569 1569 1569 1569 1569 1569 1569 1570 1570 1570 1569 1570 1570 1570 1570 1570 1571 1571 1571 1571 1572
1539 1541 1543 1545 1546 1548 1551 1553 1555 1556 1558 1560 1561 1562 1563 1564 1565 1566 1567 1567 1568 1568 1568 1568 1569 1569 1569 1569 1569 1569 1569 1569 1569 1569 1569 1569 1569 1569 1569 1569 1570 1570 1570
1538 1541 1543 1545 1546 1548 1551 1553 1555 1557 1558 1560 1561 1562 1563 1564 1565 1565 1566 1567 1567 1567 1568 1568 1568 1568 1568 1568 1568 1567 1567 1567 1568 1568 1568 1568 1568 1568 1567 1568 1568 1568 1569
1537 1539 1542 1545 1546 1548 1550 1553 1555 1556 1558 1560 1561 1561 1562 1563 1564 1565 1565 1566 1566 1567 1567 1567 1567 1567 1567 1567 1566 1566 1566 1566 1566 1566 1566 1566 1566 1566 1566 1566 1566 1566 1566
1536 1538 1541 1543 1545 1547 1550 1552 1554 1556 1557 1559 1560 1561 1561 1562 1563 1564 1564 1565 1565 1566 1566 1566 1566 1566 1565 1565 1565 1565 1565 1564 1565 1565 1565 1565 1565 1565 1564 1564 1564 1564 1564
1534 1536 1539 1541 1544 1546 1548 1550 1552 1554 1556 1558 1559 1560 1561 1561 1562 1563 1563 1564 1564 1564 1565 1565 1565 1564 1564 1564 1564 1563 1563 1563 1563 1563 1563 1563 1563 1563 1563 1563 1562 1562 1562
1532 1534 1537 1539 1542 1544 1547 1549 1551 1553 1555 1557 1558 1558 1559 1560 1561 1562 1561 1562 1562 1563 1563 1563 1563 1563 1562 1562 1562 1562 1561 1562 1561 1561 1562 1562 1562 1562 1562 1561 1561 1561 1561
1530 1531 1534 1537 1540 1542 1545 1547 1550 1552 1553 1555 1556 1557 1558 1558 1559 1560 1560 1560 1561 1561 1561 1561 1561 1561 1561 1562 1561 1561 1560 1560 1560 1560 1560 1560 1560 1560 1560 1559 1559 1559 1559
1527 1529 1532 1534 1537 1540 1543 1545 1547 1549 1551 1552 1554 1555 1555 1556 1557 1558 1558 1558 1559 1560 1560 1560 1560 1560 1560 1560 1560 1560 1560 1559 1559 1558 1559 1558 1558 1558 1558 1558 1558 1557 1557
1525 1528 1530 1532 1534 1537 1540 1542 1545 1547 1549 1551 1552 1553 1553 1554 1555 1556 1556 1556 1557 1557 1558 1558 1558 1558 1558 1558 1558 1558 1558 1558 1558 1558 1557 1556 1556 1556 1556 1556 1555 1555 1555
1523 1525 1527 1529 1532 1534 1537 1539 1542 1544 1546 1548 1549 1550 1551 1552 1552 1553 1554 1554 1554 1555 1556 1556 1556 1556 1556 1556 1556 1556 1556 1556 1556 1556 1555 1555 1554 1554 1554 1554 1553 1553 1553